Thedford, NE

1:58 AM CDT on June 28, 2017 (GMT -0500)
Thedford

Weather History for KTIF - March, 2013

Change the Weather History Date:

Monday, March 4, 2013

  Actual Average (KANW) Record (KANW)
Temperature  
Mean Temperature 34 °F -  
Max Temperature 47 °F 35 °F 73 °F (2009)
Min Temperature 22 °F 17 °F 2 °F (2015)
Degree Days  
Heating Degree Days 30    
Moisture  
Dew Point 16 °F    
Average Humidity 49    
Maximum Humidity 77    
Minimum Humidity 17    
Precipitation  
Precipitation 0.00 in - - ()
Sea Level Pressure  
Sea Level Pressure 29.84 in    
Wind  
Wind Speed 18 mph (NW)    
Max Wind Speed 37 mph    
Max Gust Speed 46 mph    
Visibility 10 miles    
Events      
Averages and records for this station are not official NWS values.
T = Trace of Precipitation, MM = Missing Value Source: NWS Daily Summary

Daily Weather History Graph

Daily Weather History Graph

Search for Another Location

Airport or City:

Trip Planner

Search our weather history database for the weather conditions in past years. The results will help you decide how hot, cold, wet, or windy it might be!

Date:

Astronomy

Mar. 04, 2013 Rise Set
Actual Time 7:11 AM CST 6:36 PM CST
Civil Twilight 6:44 AM CST 7:04 PM CST
Nautical Twilight 6:11 AM CST 7:36 PM CST
Astronomical Twilight 5:39 AM CST 8:09 PM CST
Moon 1:27 AM CST (3/4) 11:15 AM CST (3/4)
Length of Visible Light 12h 20m
Length of Day
11h 24m
Waning Gibbous, 52% of the Moon is Illuminated
Mar 4
Waning Gibbous
Mar 4
Last Quarter
Mar 11
New
Mar 19
First Quarter
Mar 27
Full

Hourly Weather History & Observations

Time (CST) Temp. Windchill Dew Point Humidity Pressure Visibility Wind Dir Wind Speed Gust Speed Precip Events Conditions
12:15 AM 42.6 °F 37.2 °F 31.1 °F 64% 29.55 in 10.0 mi West 9.2 mph - N/A   Clear
12:35 AM 42.1 °F 36.6 °F 31.1 °F 65% 29.55 in 10.0 mi West 9.2 mph - N/A   Clear
12:55 AM 41.9 °F 36.3 °F 31.1 °F 66% 29.55 in 10.0 mi West 9.2 mph - N/A   Clear
1:15 AM 42.3 °F 36.8 °F 31.1 °F 65% 29.56 in 10.0 mi West 9.2 mph - N/A   Clear
1:55 AM 44.1 °F 37.1 °F 31.1 °F 60% 29.58 in 10.0 mi West 15.0 mph - N/A   Clear
2:15 AM 45.1 °F 36.4 °F 31.6 °F 59% 29.60 in 10.0 mi NW 24.2 mph 29.9 mph N/A   Clear
2:35 AM 38.3 °F 28.4 °F 29.8 °F 72% 29.62 in 10.0 mi NW 19.6 mph 39.1 mph N/A   Clear
2:55 AM 36.5 °F 25.4 °F 29.3 °F 75% 29.64 in 10.0 mi NW 21.9 mph 33.4 mph N/A   Scattered Clouds
3:15 AM 36.9 °F 26.2 °F 29.8 °F 76% 29.65 in 10.0 mi NNW 20.7 mph 31.1 mph N/A   Overcast
3:35 AM 37.0 °F 25.4 °F 30.0 °F 76% 29.66 in 10.0 mi NW 25.3 mph 36.8 mph N/A   Overcast
3:55 AM 36.7 °F 24.2 °F 30.0 °F 77% 29.67 in 10.0 mi NW 28.8 mph 35.7 mph N/A   Overcast
4:15 AM 36.7 °F 24.9 °F 29.7 °F 76% 29.68 in 10.0 mi NNW 25.3 mph 38.0 mph N/A   Overcast
4:35 AM 36.5 °F 23.7 °F 28.4 °F 72% 29.69 in 10.0 mi NNW 29.9 mph 42.6 mph N/A   Overcast
4:55 AM 36.1 °F 24.7 °F 28.0 °F 72% 29.71 in 10.0 mi NNW 23.0 mph 35.7 mph N/A   Overcast
5:15 AM 36.0 °F 25.0 °F 27.9 °F 72% 29.73 in 10.0 mi NNW 20.7 mph 26.5 mph N/A   Overcast
5:55 AM 33.8 °F 23.9 °F 26.6 °F 75% 29.73 in 10.0 mi NNW 15.0 mph 23.0 mph N/A   Scattered Clouds
6:15 AM 32.9 °F 23.2 °F 26.2 °F 76% 29.73 in 10.0 mi NNW 13.8 mph - N/A   Clear
6:35 AM 32.9 °F 23.2 °F 25.7 °F 75% 29.75 in 10.0 mi NNW 13.8 mph 21.9 mph N/A   Clear
6:55 AM 32.5 °F 22.7 °F 25.5 °F 75% 29.76 in 10.0 mi NNW 13.8 mph 19.6 mph N/A   Clear
7:15 AM 32.4 °F 22.1 °F 25.0 °F 74% 29.77 in 10.0 mi NNW 15.0 mph 18.4 mph N/A   Clear
7:35 AM 32.9 °F 22.8 °F 24.1 °F 70% 29.77 in 10.0 mi NNW 15.0 mph 24.2 mph N/A   Clear
7:55 AM 33.4 °F 22.7 °F 23.0 °F 66% 29.79 in 10.0 mi NNW 17.3 mph 25.3 mph N/A   Clear
8:15 AM 34.3 °F 24.2 °F 22.8 °F 63% 29.79 in 10.0 mi NW 16.1 mph 28.8 mph N/A   Clear
8:35 AM 35.2 °F 23.2 °F 22.1 °F 59% 29.78 in 10.0 mi NNW 24.2 mph 29.9 mph N/A   Clear
8:55 AM 36.5 °F 26.3 °F 21.7 °F 55% 29.80 in 10.0 mi NNW 18.4 mph 26.5 mph N/A   Clear
9:15 AM 37.6 °F 28.1 °F 19.4 °F 48% 29.80 in 10.0 mi NNW 17.3 mph 28.8 mph N/A   Clear
9:35 AM 39.2 °F 28.5 °F 16.3 °F 40% 29.81 in 10.0 mi NNW 24.2 mph 33.4 mph N/A   Clear
9:55 AM 40.1 °F 30.2 °F 16.9 °F 39% 29.80 in 10.0 mi NNW 21.9 mph 27.6 mph N/A   Clear
10:15 AM 40.5 °F 31.2 °F 17.6 °F 40% 29.80 in 10.0 mi NNW 19.6 mph 27.6 mph N/A   Clear
10:35 AM 41.7 °F 33.4 °F 17.6 °F 38% 29.80 in 10.0 mi NNW 17.3 mph 26.5 mph N/A   Clear
10:55 AM 42.1 °F 34.2 °F 16.9 °F 36% 29.80 in 10.0 mi NNW 16.1 mph 25.3 mph N/A   Clear
11:15 AM 43.2 °F 35.3 °F 17.4 °F 36% 29.79 in 10.0 mi NNW 17.3 mph 23.0 mph N/A   Clear
11:35 AM 44.2 °F 35.9 °F 17.1 °F 34% 29.79 in 10.0 mi North 20.7 mph - N/A   Clear
11:55 AM 45.1 °F 38.4 °F 18.7 °F 35% 29.79 in 10.0 mi NW 15.0 mph 23.0 mph N/A   Clear
12:15 PM 46.4 °F 39.5 °F 19.0 °F 34% 29.79 in 10.0 mi NW 17.3 mph 24.2 mph N/A   Scattered Clouds
12:55 PM 46.4 °F 39.5 °F 16.2 °F 30% 29.79 in 10.0 mi NNW 17.3 mph 26.5 mph N/A   Scattered Clouds
1:15 PM 46.8 °F - 10.6 °F 23% 29.80 in 10.0 mi NW 24.2 mph 28.8 mph N/A   Scattered Clouds
1:35 PM 47.3 °F - 8.2 °F 20% 29.79 in 10.0 mi NW 24.2 mph 29.9 mph N/A   Clear
1:55 PM 46.9 °F - 4.3 °F 17% 29.80 in 10.0 mi NW 24.2 mph 28.8 mph N/A   Scattered Clouds
2:15 PM 44.4 °F 36.1 °F 7.0 °F 22% 29.80 in 10.0 mi NW 20.7 mph 29.9 mph N/A   Mostly Cloudy
2:35 PM 43.2 °F 34.0 °F 7.5 °F 23% 29.83 in 10.0 mi WNW 23.0 mph 34.5 mph N/A   Mostly Cloudy
2:55 PM 41.0 °F 31.1 °F 5.9 °F 23% 29.85 in 10.0 mi WNW 23.0 mph 39.1 mph N/A   Overcast
3:15 PM 40.3 °F 29.7 °F 3.0 °F 21% 29.86 in 10.0 mi NW 25.3 mph 41.4 mph N/A   Overcast
3:35 PM 39.6 °F 27.9 °F 2.1 °F 21% 29.87 in 10.0 mi WNW 29.9 mph 39.1 mph N/A   Mostly Cloudy
3:55 PM 38.7 °F 27.1 °F 4.3 °F 24% 29.87 in 10.0 mi WNW 27.6 mph 35.7 mph N/A   Overcast
4:15 PM 38.3 °F 27.8 °F 4.1 °F 24% 29.89 in 10.0 mi WNW 21.9 mph 35.7 mph N/A   Overcast
4:35 PM 37.6 °F 27.4 °F 4.3 °F 25% 29.89 in 10.0 mi WNW 19.6 mph 40.3 mph N/A   Mostly Cloudy
4:55 PM 36.5 °F 25.7 °F 6.1 °F 28% 29.91 in 10.0 mi WNW 20.7 mph 31.1 mph N/A   Mostly Cloudy
5:15 PM 36.0 °F 24.4 °F 3.6 °F 26% 29.93 in 10.0 mi WNW 23.0 mph 32.2 mph N/A   Mostly Cloudy
5:35 PM 35.6 °F 24.8 °F 9.1 °F 33% 29.95 in 10.0 mi NNW 19.6 mph 28.8 mph N/A   Scattered Clouds
5:55 PM 33.8 °F 21.6 °F 10.4 °F 38% 29.97 in 10.0 mi NNW 23.0 mph 29.9 mph N/A   Scattered Clouds
6:15 PM 32.9 °F 21.3 °F 9.1 °F 37% 29.99 in 10.0 mi NNW 19.6 mph 29.9 mph N/A   Mostly Cloudy
6:35 PM 31.6 °F 19.0 °F 4.8 °F 32% 30.01 in 10.0 mi North 21.9 mph 29.9 mph N/A   Overcast
6:55 PM 29.7 °F 16.1 °F 6.6 °F 38% 30.03 in 10.0 mi NNW 23.0 mph 32.2 mph N/A   Overcast
7:15 PM 28.4 °F 14.1 °F 5.7 °F 38% 30.03 in 10.0 mi NNW 24.2 mph 29.9 mph N/A   Mostly Cloudy
7:35 PM 27.3 °F 12.4 °F 5.0 °F 39% 30.06 in 10.0 mi NNW 25.3 mph 29.9 mph N/A   Mostly Cloudy
7:55 PM 26.4 °F 12.8 °F 6.6 °F 43% 30.07 in 10.0 mi NNW 19.6 mph 28.8 mph N/A   Scattered Clouds
8:15 PM 26.4 °F 12.1 °F 6.3 °F 42% 30.08 in 10.0 mi NNW 21.9 mph 28.8 mph N/A   Clear
8:35 PM 26.1 °F 14.0 °F 7.2 °F 45% 30.09 in 10.0 mi NNW 15.0 mph 27.6 mph N/A   Clear
8:55 PM 25.2 °F 11.2 °F 7.7 °F 48% 30.10 in 10.0 mi NW 19.6 mph - N/A   Clear
9:15 PM 25.3 °F 10.7 °F 8.4 °F 49% 30.11 in 10.0 mi NW 21.9 mph 33.4 mph N/A   Scattered Clouds
9:35 PM 24.8 °F 8.7 °F 6.4 °F 46% 30.11 in 10.0 mi NW 26.5 mph 35.7 mph N/A   Scattered Clouds
9:55 PM 24.4 °F 8.5 °F 7.0 °F 48% 30.12 in 10.0 mi NW 25.3 mph 34.5 mph N/A   Scattered Clouds
10:15 PM 23.7 °F 6.9 °F 9.0 °F 53% 30.12 in 10.0 mi NW 27.6 mph 41.4 mph N/A   Scattered Clouds
10:55 PM 22.6 °F 7.1 °F 10.8 °F 60% 30.11 in 10.0 mi NW 21.9 mph 29.9 mph N/A   Scattered Clouds
11:15 PM 22.6 °F 6.8 °F 11.7 °F 63% 30.11 in 10.0 mi NW 23.0 mph 35.7 mph N/A   Clear
11:35 PM 23.0 °F 7.2 °F 12.0 °F 63% 30.12 in 10.0 mi NW 23.0 mph 32.2 mph N/A   Clear
11:55 PM 24.4 °F 5.9 °F 10.8 °F 56% 30.11 in 10.0 mi NW 36.8 mph 46.0 mph N/A   Mostly Cloudy